CAPE
nan nan nan nan nan nan nan nan nan nan nan nan nan nan nan nan nan nan nan nan nan nan nan nan nan nan nan 8 9 9 10 8 11 11 9 7 6 6 5 3 3 2 1 0 0 0 0 1 1 1 1 0 nan nan nan 0 0 0 0 1 1 15 68 201 201 337 467 592 654 654 647 595 513 513 459 480 408 408 258 154 154 95 44 3 3 nan
nan nan nan nan nan nan nan nan nan nan nan nan nan nan nan nan nan nan nan nan nan nan nan nan nan nan nan 3 10 10 11 8 9 9 9 9 7 7 5 3 3 1 0 0 0 nan nan 0 0 1 1 1 0 0 0 1 1 1 0 nan nan nan 8 76 76 200 322 470 624 624 715 617 567 567 425 260 107 107 40 6 6 4 nan 0 0 2
nan nan nan nan nan nan nan nan nan nan nan nan nan nan nan nan nan nan nan nan nan nan nan nan nan nan nan 1 13 13 10 10 9 9 8 9 7 7 5 3 3 2 1 0 0 nan nan nan nan 0 0 1 1 1 1 0 0 nan nan nan nan nan nan 3 3 65 204 408 562 562 574 461 445 445 126 21 1 1 nan nan nan 3 8 7 7 6
nan nan nan nan nan nan nan nan nan nan nan nan nan nan nan nan nan nan nan nan nan nan nan nan nan nan nan nan 9 9 11 10 8 8 8 6 6 6 5 4 4 3 1 1 1 1 0 nan nan nan nan nan nan nan nan nan nan nan nan nan nan nan nan 0 0 6 108 236 330 330 243 107 9 9 0 nan 0 0 2 9 9 17 12 12 12 11
nan nan nan nan nan nan nan nan nan nan nan nan nan nan nan nan nan nan nan nan nan nan nan nan nan nan nan nan 7 7 8 9 8 8 7 5 4 4 5 4 4 4 3 1 1 1 1 0 0 nan nan nan nan nan nan nan nan nan nan nan nan nan nan nan nan nan 6 17 6 6 3 0 nan nan nan nan 0 0 12 20 20 19 12 14 14 20
nan nan nan nan nan nan nan nan nan nan nan nan nan nan nan nan nan nan nan nan nan nan nan nan nan nan nan nan 6 6 8 7 6 6 4 4 4 4 5 5 5 5 4 3 3 1 1 0 0 0 nan nan nan nan nan nan nan nan nan nan nan nan nan nan nan nan nan nan nan nan nan nan nan nan nan nan 3 3 15 24 24 21 19 23 23 24
nan nan nan nan nan nan nan nan nan nan nan nan nan nan nan nan nan nan nan nan nan nan nan nan nan nan nan 1 6 6 7 5 5 5 3 2 3 3 4 5 5 6 5 4 4 2 0 1 1 0 nan nan nan nan nan nan nan nan nan nan nan nan nan nan nan nan nan nan nan nan nan nan nan nan nan nan 2 2 19 33 33 36 35 32 32 30
nan nan nan nan nan nan nan nan nan nan nan nan nan nan nan nan nan nan nan nan nan nan nan nan nan nan nan nan nan nan 0 nan nan nan 0 0 1 1 1 3 3 4 3 4 4 4 3 1 1 nan nan nan nan nan nan nan nan nan nan nan nan nan nan nan nan nan nan nan nan nan nan nan nan nan nan nan 0 0 8 17 17 34 42 49 49 46
nan nan nan nan nan nan nan nan nan nan nan nan nan nan nan nan nan nan nan nan nan nan nan nan nan nan nan nan nan nan 0 2 0 0 0 nan nan nan 1 2 2 4 3 3 3 4 4 2 2 0 nan nan nan nan nan nan nan nan nan nan nan nan nan nan nan nan nan nan nan nan nan nan nan nan nan nan nan nan nan 1 1 15 33 46 46 49
nan nan nan nan nan nan nan nan nan nan nan nan nan nan nan nan nan nan nan nan nan nan nan nan nan nan nan nan nan nan nan nan 3 3 5 nan 2 2 nan nan nan 1 1 2 2 2 3 2 2 1 nan nan nan nan nan nan nan nan nan nan nan nan nan nan nan nan nan nan nan nan nan nan nan nan nan nan nan nan nan nan nan 0 9 23 23 34
nan nan nan nan nan nan nan nan nan nan nan nan nan nan nan nan nan nan nan nan nan nan nan nan nan nan nan nan nan nan nan nan nan nan nan nan nan nan nan nan nan nan nan nan nan 1 1 1 1 0 nan nan nan nan nan nan nan nan nan nan nan nan nan nan nan nan nan nan nan nan nan nan nan nan nan nan nan nan nan nan nan nan 0 6 6 15
nan nan nan nan nan nan nan nan nan nan nan nan nan nan nan nan nan nan nan nan nan nan nan nan nan nan nan nan nan nan nan nan nan nan nan nan nan nan nan nan nan nan nan nan nan nan 0 nan nan nan nan nan nan nan nan nan nan nan nan nan nan nan nan nan nan nan nan nan nan nan nan nan nan nan nan nan nan nan nan nan nan nan nan 1 1 7
nan nan nan nan nan nan nan nan nan nan nan nan nan nan nan nan nan nan nan nan nan nan nan nan nan nan nan nan nan nan nan nan nan nan nan nan nan nan nan nan nan nan nan nan nan 0 2 1 1 nan nan nan nan nan nan nan nan nan nan nan nan nan nan nan nan nan nan nan nan nan nan nan nan nan nan nan nan nan nan nan nan nan nan 0 0 4
nan nan nan nan nan nan nan nan nan nan 0 nan nan nan nan nan nan nan nan nan nan nan nan nan nan nan nan nan nan nan nan nan nan nan nan nan nan nan nan nan nan nan nan nan nan nan 1 0 0 nan nan 0 nan nan nan nan nan nan nan nan nan nan nan nan nan nan nan nan nan nan nan nan nan nan nan nan nan nan nan nan nan nan nan 1 1 4
nan nan nan nan nan nan nan nan nan nan nan nan nan nan nan nan nan nan nan nan nan nan nan nan nan nan nan nan nan nan nan nan nan nan nan nan nan nan nan nan nan nan nan nan nan nan 0 nan nan nan nan nan nan nan nan nan nan nan nan nan nan nan nan nan nan nan nan nan nan nan nan nan nan nan nan nan nan nan nan nan nan nan nan 1 1 3
nan nan nan nan nan nan nan nan nan nan nan nan nan nan nan nan nan nan nan nan nan nan nan nan nan nan nan nan nan nan nan nan nan nan nan nan nan nan nan nan nan nan nan nan nan nan nan nan nan nan 0 0 nan nan nan 0 0 nan nan nan nan nan nan nan nan nan nan nan nan nan nan nan nan nan 0 nan nan nan nan nan nan nan nan 0 0 3
nan nan nan nan nan nan nan nan nan nan nan nan nan nan nan nan nan nan nan nan nan nan nan nan nan nan nan nan nan nan nan nan nan nan nan nan nan nan nan nan nan nan nan nan nan nan nan nan nan nan nan 0 nan nan nan nan nan nan nan nan nan nan nan nan nan nan nan nan nan nan nan nan 0 0 nan nan nan nan nan nan nan nan 0 1 1 2
nan nan nan nan nan nan 0 nan nan nan nan nan nan nan nan nan nan nan nan nan nan nan nan nan nan nan nan nan nan nan nan nan nan nan nan nan nan nan nan nan nan nan nan nan nan nan nan nan nan 1 1 2 0 0 0 0 0 nan nan nan nan nan nan nan nan nan nan nan nan nan nan 0 nan nan nan nan nan nan nan 0 0 0 1 2 2 3
nan nan nan nan nan nan 0 nan nan nan nan nan nan nan nan nan nan nan nan nan nan nan nan nan nan nan nan nan nan nan nan nan nan nan nan nan nan nan nan nan nan nan nan nan nan nan nan nan nan 2 6 2 2 2 1 1 1 1 nan nan nan nan nan nan nan nan nan nan nan nan nan 0 0 0 0 nan 0 0 0 0 0 2 3 3 3 4
nan nan nan nan nan nan nan 0 0 0 0 nan nan nan nan nan nan nan nan nan nan nan nan nan nan nan nan nan nan nan nan nan nan nan nan nan nan nan nan nan nan nan nan nan nan nan nan nan nan nan 3 2 3 3 2 1 1 1 0 nan nan nan nan nan nan nan nan nan 0 0 0 0 0 0 0 0 1 1 2 3 3 5 7 6 6 6
nan nan 0 nan nan nan nan 0 1 1 1 nan nan nan nan nan nan nan nan nan nan nan nan nan nan nan nan nan nan nan nan nan nan nan nan nan nan nan nan nan nan nan nan nan nan nan nan nan nan nan 7 6 3 3 4 3 3 2 1 0 0 nan nan nan nan nan nan nan 0 0 1 1 1 1 0 2 4 4 5 8 8 9 9 9 9 8
nan nan nan nan nan nan 0 0 1 1 1 nan nan nan nan nan nan nan nan nan nan nan nan nan nan nan nan nan nan nan nan nan 0 0 nan nan nan nan nan nan nan nan nan nan nan nan nan nan nan nan 7 9 4 4 5 3 3 2 1 0 0 0 nan nan nan nan nan nan 1 1 1 1 2 2 3 4 8 8 11 12 12 12 10 11 11 10
nan nan nan nan nan nan 0 0 1 1 0 0 0 0 nan nan nan nan nan nan nan nan nan nan nan nan nan nan nan nan nan nan nan nan nan nan nan nan nan nan nan nan nan nan nan nan nan nan nan nan 2 8 6 6 5 3 3 3 2 1 1 0 0 nan nan nan nan nan 1 1 3 3 3 3 5 8 10 10 12 13 13 13 11 11 11 10
nan nan nan nan nan nan nan nan nan nan nan nan 0 0 0 nan nan nan nan nan nan nan nan nan nan nan nan nan nan nan nan nan nan nan nan nan nan nan nan nan nan nan nan nan nan nan nan nan nan nan 0 4 6 6 5 4 4 5 3 2 2 1 0 0 0 nan nan nan 0 0 3 5 6 6 7 8 10 10 14 13 13 12 12 10 10 10
nan nan 0 0 0 1 nan nan nan nan nan nan nan nan nan nan nan nan nan nan nan nan nan nan nan nan nan nan nan nan nan nan nan nan nan nan nan nan nan nan nan nan nan nan nan nan nan nan nan nan nan 0 3 3 5 5 5 5 4 3 3 2 1 1 1 1 0 0 0 0 2 4 8 8 8 9 11 11 13 12 12 12 11 11 11 11
2 2 1 5 5 10 7 5 3 3 nan nan nan nan nan nan nan nan nan nan nan nan nan nan nan nan nan nan nan nan nan nan nan nan nan nan nan nan nan nan nan nan nan nan nan nan nan nan nan nan nan nan 6 6 4 4 4 5 5 3 3 3 2 2 2 1 0 1 1 1 2 4 6 6 8 8 9 9 12 13 13 12 10 9 9 13
7 5 6 9 9 9 8 6 5 5 4 2 nan nan nan nan nan nan nan nan nan nan nan nan nan nan nan nan nan nan nan nan nan nan nan nan nan nan nan nan nan nan nan nan nan nan nan nan nan nan nan nan 1 1 4 4 4 3 5 5 5 3 3 2 2 2 2 1 1 1 1 3 3 3 5 6 8 8 10 11 11 9 8 8 8 16
5 4 4 4 4 5 5 6 4 4 4 2 0 0 nan nan nan nan nan nan nan nan nan nan nan nan nan nan nan nan nan 0 nan nan nan nan nan nan nan 0 0 nan nan nan nan 1 1 0 0 nan nan nan nan nan 1 2 2 2 3 3 3 4 3 2 2 2 2 1 2 2 1 3 2 2 2 3 4 4 6 6 6 4 3 3 3 3
3 3 3 3 3 3 4 5 5 5 4 3 1 1 nan nan nan nan nan nan nan nan nan nan nan nan nan nan nan nan nan 0 1 1 nan nan nan nan nan nan nan 0 nan nan nan nan nan nan nan nan nan nan nan nan nan 1 1 1 2 2 2 2 3 2 2 2 2 3 2 2 3 2 3 3 2 2 1 1 1 1 1 1 0 0 0 1
1 1 1 2 2 2 2 2 5 5 6 4 3 3 0 nan nan nan nan nan nan nan nan nan nan nan nan 0 nan nan nan 0 2 2 nan nan nan nan nan nan nan nan 0 nan nan nan nan nan nan nan nan 0 nan nan nan nan nan nan 0 1 1 1 3 3 3 4 2 2 2 2 3 2 2 2 3 2 1 1 1 0 0 nan nan nan nan 0
nan nan nan nan nan 0 nan nan 2 2 5 5 3 3 1 nan nan nan nan nan nan nan nan nan nan 0 nan nan nan nan nan nan 2 2 nan nan nan nan nan nan nan nan 0 nan nan nan nan nan nan nan nan nan nan nan nan nan nan nan nan nan nan 1 3 2 2 3 3 3 3 3 3 3 3 3 3 3 1 1 0 0 0 nan nan nan nan nan
nan nan nan nan nan nan nan nan nan nan nan nan nan nan 0 0 nan nan nan nan nan nan nan nan nan nan nan nan nan nan nan nan 4 4 nan nan nan nan nan nan nan nan nan nan nan nan nan nan nan nan nan nan nan nan nan nan nan nan nan nan nan nan 1 2 2 2 1 4 3 3 3 3 4 4 4 3 3 3 2 1 1 0 nan nan nan nan
nan nan nan nan nan nan nan nan nan nan nan nan nan nan nan nan 0 0 nan nan nan nan nan nan nan nan nan nan nan nan 0 0 7 7 nan nan nan nan nan 0 0 nan nan nan nan nan nan nan nan nan nan nan nan nan nan nan nan nan nan nan nan nan nan 0 0 0 1 1 1 1 3 3 4 4 5 4 4 4 4 3 3 2 0 nan nan nan
nan nan nan nan nan nan nan nan nan nan nan nan nan nan nan nan nan nan nan nan nan nan nan nan nan nan nan nan nan nan nan 0 5 5 1 nan nan nan 0 0 0 nan nan nan nan nan nan nan nan nan nan nan nan nan nan nan nan nan nan nan nan nan nan nan nan nan nan nan nan nan nan nan 3 3 3 5 5 5 6 5 5 3 3 nan nan nan
nan nan nan nan nan nan nan nan nan nan nan nan nan nan nan nan nan nan nan nan nan nan nan nan nan nan nan nan nan nan 0 nan 3 3 4 0 nan nan 0 0 0 0 nan nan nan nan nan nan nan nan nan nan nan nan nan nan nan nan nan nan nan nan nan nan nan nan nan nan nan nan nan nan nan nan 1 3 4 4 5 5 5 5 3 4 4 0
nan nan nan nan nan nan nan 0 nan nan nan nan nan nan nan nan nan nan nan nan nan nan 0 nan nan nan nan nan nan nan 0 0 2 2 3 0 nan nan 0 nan nan 0 nan nan nan nan nan nan nan nan nan nan nan nan nan nan nan nan nan nan nan nan nan nan nan nan nan nan nan nan nan nan nan nan nan 2 2 2 2 3 3 4 5 6 6 3
nan nan nan nan nan nan 0 nan nan nan nan nan nan nan nan nan nan nan nan nan nan nan nan 1 1 1 3 nan 0 0 nan nan nan nan nan nan nan nan nan nan nan 0 nan nan nan nan nan nan nan nan nan nan nan nan nan nan nan nan nan nan nan nan nan nan nan nan nan 0 nan nan nan nan nan nan 0 1 0 0 2 3 3 2 3 4 4 4
nan nan nan nan nan nan nan nan 0 0 nan nan nan nan nan nan nan nan nan nan nan nan nan nan nan nan 3 5 0 0 nan nan nan nan nan nan nan nan nan nan nan nan nan nan nan nan nan nan nan nan nan nan nan nan nan nan nan nan nan nan nan nan nan nan nan nan nan 0 1 1 0 nan nan nan nan nan nan nan nan nan nan 2 1 1 1 3
nan nan nan nan nan nan nan nan 0 0 nan nan nan nan nan nan nan nan nan nan nan nan nan nan nan nan nan nan 3 3 2 nan nan nan nan nan nan nan nan nan nan nan nan nan nan nan nan nan nan nan nan nan nan nan nan nan nan nan nan nan nan nan 1 0 0 nan nan nan 2 2 0 nan nan nan nan nan nan nan nan 0 0 1 nan nan nan 1
nan nan nan 0 0 nan nan 0 nan nan nan 0 nan nan nan nan nan nan nan nan nan nan nan nan nan nan nan 0 0 0 0 0 nan nan nan nan nan nan nan nan nan nan nan nan nan nan nan nan nan nan nan nan nan nan nan nan nan nan nan nan nan nan 3 2 2 0 nan nan 1 1 0 nan nan nan nan nan nan nan nan 0 0 2 1 nan nan nan
nan nan nan nan nan 0 nan nan nan nan nan nan nan nan nan nan nan nan nan nan nan nan nan nan nan nan nan nan nan nan nan nan nan nan nan nan nan nan nan nan nan nan nan nan nan nan nan nan nan nan nan nan nan nan nan nan nan 0 nan nan nan nan nan 6 6 1 0 nan 0 0 3 1 1 1 nan nan nan nan 1 2 2 4 3 1 1 0
1 0 nan nan nan nan nan nan nan nan nan nan nan nan nan nan nan nan nan nan nan nan nan nan nan nan nan nan nan nan nan nan nan nan nan nan nan nan nan nan nan nan nan nan nan nan nan nan nan nan nan nan nan nan nan nan nan nan nan nan nan nan nan 1 1 0 0 nan nan nan 3 1 0 0 1 nan 0 0 3 4 4 8 8 4 4 3
nan nan nan nan nan nan nan nan nan nan nan nan nan nan nan nan nan nan nan nan nan nan nan nan nan nan nan nan nan nan nan nan nan nan nan nan nan nan nan nan nan nan nan nan nan nan nan nan nan nan nan nan nan nan nan nan nan nan nan nan nan nan nan nan nan nan 0 nan nan nan nan 0 1 1 1 1 1 1 3 6 6 11 10 5 5 5
nan nan nan nan nan nan nan nan nan nan nan nan nan nan nan nan nan nan nan nan nan nan nan nan nan nan nan nan nan nan nan nan nan nan nan 0 nan nan nan nan nan nan nan nan nan nan nan nan nan nan nan nan nan nan nan nan nan nan nan nan nan nan nan nan nan nan nan nan nan nan nan nan 0 0 1 2 2 2 3 4 4 6 9 6 6 6
nan nan nan nan nan nan nan nan nan nan nan nan nan nan nan nan nan nan nan nan nan nan nan nan nan nan nan nan nan nan nan nan nan nan nan 1 3 3 nan nan nan nan nan nan nan nan nan nan nan nan nan nan nan nan nan nan nan nan nan 0 0 nan nan nan nan nan nan nan nan nan nan nan nan nan 1 2 3 3 4 5 5 7 8 7 7 6
nan nan nan nan nan nan nan nan nan nan nan nan nan nan nan nan nan nan nan nan nan nan nan nan nan nan nan nan nan nan nan nan nan nan nan nan nan nan nan nan nan nan nan nan nan nan nan nan nan nan nan nan nan nan nan nan nan nan nan nan nan nan nan nan nan nan nan nan nan nan nan nan nan nan 0 2 3 3 4 6 6 5 6 8 8 7
nan nan nan nan nan nan nan nan nan nan nan nan nan nan nan nan nan nan nan nan nan nan nan nan nan nan 0 nan nan nan nan nan nan nan nan nan nan nan nan nan nan 0 nan nan nan nan nan nan nan nan nan nan nan nan nan nan nan nan nan nan nan nan nan nan nan nan nan nan nan nan nan nan nan nan 1 1 2 2 4 6 6 6 6 9 9 8
nan nan nan nan nan nan nan nan nan nan nan nan nan nan nan nan nan nan nan nan nan nan nan nan nan nan nan nan nan nan nan nan nan nan nan nan nan nan nan nan nan nan nan nan nan 0 nan nan nan nan nan nan nan nan nan nan nan nan nan nan nan nan nan nan nan nan nan nan nan nan nan nan nan nan 0 0 1 1 3 5 5 6 6 7 7 9
nan nan nan nan nan nan nan nan nan nan nan nan nan nan nan nan 0 0 nan nan nan nan nan nan nan nan nan nan 0 0 0 nan nan nan nan nan nan nan nan nan nan nan nan nan nan nan nan nan nan nan nan nan nan nan nan nan nan nan nan nan nan nan nan nan nan nan nan nan nan nan nan nan nan nan nan nan 1 1 2 4 4 5 6 6 6 7
nan nan nan nan nan nan nan nan nan nan nan nan nan nan nan nan nan nan nan nan nan nan nan nan nan nan nan nan nan nan nan nan nan nan nan nan nan nan nan nan nan nan nan nan nan nan nan nan nan 5 4 nan nan nan nan nan nan nan nan nan nan nan nan nan nan nan nan nan nan nan nan nan nan nan nan 0 1 1 2 3 3 5 7 6 6 5
nan nan nan nan nan nan nan nan nan nan nan nan nan nan nan nan nan nan nan nan nan nan nan nan nan nan 0 nan nan nan nan nan nan nan nan nan nan nan 0 nan nan nan nan nan nan nan nan nan nan nan 4 9 0 0 nan nan nan nan nan nan nan nan nan nan nan nan nan nan nan nan nan nan nan nan nan nan nan nan 1 2 2 3 5 4 4 5
CIN
nan nan nan nan nan nan nan nan nan nan nan nan nan nan nan nan nan nan nan nan nan nan nan nan nan nan nan -0 -0 -0 -0 -0 -0 -0 -0 -0 -0 -0 -0 -0 -0 -0 -1 -1 -1 -1 -0 -0 -0 -0 -0 -0 nan nan nan -0 -0 -0 -0 -44 -44 -21 -9 -2 -2 -0 -0 -0 -0 -0 -1 -1 -7 -7 -13 -1 -8 -8 -11 -14 -14 -15 -15 -75 -75 nan
nan nan nan nan nan nan nan nan nan nan nan nan nan nan nan nan nan nan nan nan nan nan nan nan nan nan nan -0 -0 -0 -0 -0 -0 -0 -0 -0 -0 -0 -0 -0 -0 -0 -1 -1 -1 nan nan -1 -1 -0 -0 -0 -0 -0 -0 -0 -0 -0 -0 nan nan nan -27 -5 -5 -2 -1 -0 -0 -0 -1 -1 -1 -1 -8 -15 -23 -23 -25 -53 -53 -35 nan -0 -0 -0
nan nan nan nan nan nan nan nan nan nan nan nan nan nan nan nan nan nan nan nan nan nan nan nan nan nan nan -1 -0 -0 -0 -0 -0 -0 -0 -0 -0 -0 -0 -0 -0 -0 -1 -1 -1 nan nan nan nan -1 -0 -0 -0 -0 -0 -0 -0 nan nan nan nan nan nan -36 -36 -8 -4 -1 -1 -1 -4 -5 -3 -3 -16 -37 -42 -42 nan nan nan -0 -0 -0 -0 -0
nan nan nan nan nan nan nan nan nan nan nan nan nan nan nan nan nan nan nan nan nan nan nan nan nan nan nan nan -0 -0 -0 -0 -0 -0 -0 -0 -0 -0 -0 -0 -0 -0 -0 -1 -1 -1 -0 nan nan nan nan nan nan nan nan nan nan nan nan nan nan nan nan -0 -0 -42 -11 -8 -6 -6 -6 -9 -21 -21 -36 nan -31 -31 -0 -0 -0 -0 -0 -0 -0 -0
nan nan nan nan nan nan nan nan nan nan nan nan nan nan nan nan nan nan nan nan nan nan nan nan nan nan nan nan -0 -0 -0 -0 -0 -0 -0 -0 -0 -0 -0 -0 -0 -0 -0 -1 -1 -1 -0 -0 -0 nan nan nan nan nan nan nan nan nan nan nan nan nan nan nan nan nan -46 -35 -39 -39 -38 -47 nan nan nan nan -2 -2 -0 -0 -0 -0 -0 -0 -0 -0
nan nan nan nan nan nan nan nan nan nan nan nan nan nan nan nan nan nan nan nan nan nan nan nan nan nan nan nan -0 -0 -0 -0 -0 -0 -0 -0 -0 -0 -0 -0 -0 -0 -0 -0 -0 -1 -1 -0 -0 -0 nan nan nan nan nan nan nan nan nan nan nan nan nan nan nan nan nan nan nan nan nan nan nan nan nan nan -1 -1 -0 -0 -0 -0 -0 -0 -0 -0
nan nan nan nan nan nan nan nan nan nan nan nan nan nan nan nan nan nan nan nan nan nan nan nan nan nan nan -1 -0 -0 -0 -0 -0 -0 -0 -0 -0 -0 -0 -0 -0 -0 -0 -0 -0 -0 -1 -1 -1 -1 nan nan nan nan nan nan nan nan nan nan nan nan nan nan nan nan nan nan nan nan nan nan nan nan nan nan -2 -2 -0 -0 -0 -0 -0 -0 -0 -0
nan nan nan nan nan nan nan nan nan nan nan nan nan nan nan nan nan nan nan nan nan nan nan nan nan nan nan nan nan nan -4 nan nan nan -3 -2 -0 -0 -0 -0 -0 -0 -0 -0 -0 -0 -0 -0 -0 nan nan nan nan nan nan nan nan nan nan nan nan nan nan nan nan nan nan nan nan nan nan nan nan nan nan nan -6 -6 -1 -0 -0 -0 -0 -0 -0 -0
nan nan nan nan nan nan nan nan nan nan nan nan nan nan nan nan nan nan nan nan nan nan nan nan nan nan nan nan nan nan -4 -2 -4 -4 -4 nan nan nan -1 -0 -0 -0 -0 -0 -0 -0 -0 -0 -0 -1 nan nan nan nan nan nan nan nan nan nan nan nan nan nan nan nan nan nan nan nan nan nan nan nan nan nan nan nan nan -3 -3 -0 -0 -0 -0 -0
nan nan nan nan nan nan nan nan nan nan nan nan nan nan nan nan nan nan nan nan nan nan nan nan nan nan nan nan nan nan nan nan -0 -0 -0 nan -0 -0 nan nan nan -1 -0 -0 -0 -0 -0 -0 -0 -0 nan nan nan nan nan nan nan nan nan nan nan nan nan nan nan nan nan nan nan nan nan nan nan nan nan nan nan nan nan nan nan -3 -0 -0 -0 -0
nan nan nan nan nan nan nan nan nan nan nan nan nan nan nan nan nan nan nan nan nan nan nan nan nan nan nan nan nan nan nan nan nan nan nan nan nan nan nan nan nan nan nan nan nan -1 -0 -0 -0 -1 nan nan nan nan nan nan nan nan nan nan nan nan nan nan nan nan nan nan nan nan nan nan nan nan nan nan nan nan nan nan nan nan -2 -0 -0 -0
nan nan nan nan nan nan nan nan nan nan nan nan nan nan nan nan nan nan nan nan nan nan nan nan nan nan nan nan nan nan nan nan nan nan nan nan nan nan nan nan nan nan nan nan nan nan -1 nan nan nan nan nan nan nan nan nan nan nan nan nan nan nan nan nan nan nan nan nan nan nan nan nan nan nan nan nan nan nan nan nan nan nan nan -1 -1 -0
nan nan nan nan nan nan nan nan nan nan nan nan nan nan nan nan nan nan nan nan nan nan nan nan nan nan nan nan nan nan nan nan nan nan nan nan nan nan nan nan nan nan nan nan nan -4 -2 -2 -2 nan nan nan nan nan nan nan nan nan nan nan nan nan nan nan nan nan nan nan nan nan nan nan nan nan nan nan nan nan nan nan nan nan nan -1 -1 -0
nan nan nan nan nan nan nan nan nan nan -1 nan nan nan nan nan nan nan nan nan nan nan nan nan nan nan nan nan nan nan nan nan nan nan nan nan nan nan nan nan nan nan nan nan nan nan -2 -3 -3 nan nan -2 nan nan nan nan nan nan nan nan nan nan nan nan nan nan nan nan nan nan nan nan nan nan nan nan nan nan nan nan nan nan nan -1 -1 -0
nan nan nan nan nan nan nan nan nan nan nan nan nan nan nan nan nan nan nan nan nan nan nan nan nan nan nan nan nan nan nan nan nan nan nan nan nan nan nan nan nan nan nan nan nan nan -2 nan nan nan nan nan nan nan nan nan nan nan nan nan nan nan nan nan nan nan nan nan nan nan nan nan nan nan nan nan nan nan nan nan nan nan nan -1 -1 -1
nan nan nan nan nan nan nan nan nan nan nan nan nan nan nan nan nan nan nan nan nan nan nan nan nan nan nan nan nan nan nan nan nan nan nan nan nan nan nan nan nan nan nan nan nan nan nan nan nan nan -1 -1 nan nan nan -1 -1 nan nan nan nan nan nan nan nan nan nan nan nan nan nan nan nan nan -1 nan nan nan nan nan nan nan nan -1 -1 -0
nan nan nan nan nan nan nan nan nan nan nan nan nan nan nan nan nan nan nan nan nan nan nan nan nan nan nan nan nan nan nan nan nan nan nan nan nan nan nan nan nan nan nan nan nan nan nan nan nan nan nan -1 nan nan nan nan nan nan nan nan nan nan nan nan nan nan nan nan nan nan nan nan -1 -1 nan nan nan nan nan nan nan nan -1 -1 -1 -0
nan nan nan nan nan nan -0 nan nan nan nan nan nan nan nan nan nan nan nan nan nan nan nan nan nan nan nan nan nan nan nan nan nan nan nan nan nan nan nan nan nan nan nan nan nan nan nan nan nan -2 -1 -0 -1 -1 -1 -1 -1 nan nan nan nan nan nan nan nan nan nan nan nan nan nan -1 nan nan nan nan nan nan nan -1 -1 -1 -1 -1 -1 -0
nan nan nan nan nan nan -0 nan nan nan nan nan nan nan nan nan nan nan nan nan nan nan nan nan nan nan nan nan nan nan nan nan nan nan nan nan nan nan nan nan nan nan nan nan nan nan nan nan nan -1 -0 -1 -0 -0 -1 -1 -1 -1 nan nan nan nan nan nan nan nan nan nan nan nan nan -1 -1 -1 -1 nan -1 -1 -1 -1 -1 -1 -0 -0 -0 -0
nan nan nan nan nan nan nan -0 -0 -0 -0 nan nan nan nan nan nan nan nan nan nan nan nan nan nan nan nan nan nan nan nan nan nan nan nan nan nan nan nan nan nan nan nan nan nan nan nan nan nan nan -1 -1 -0 -0 -0 -0 -0 -1 -1 nan nan nan nan nan nan nan nan nan -1 -1 -1 -1 -2 -2 -2 -2 -1 -1 -1 -0 -0 -0 -0 -0 -0 -0
nan nan -0 nan nan nan nan -0 -0 -0 -0 nan nan nan nan nan nan nan nan nan nan nan nan nan nan nan nan nan nan nan nan nan nan nan nan nan nan nan nan nan nan nan nan nan nan nan nan nan nan nan -0 -0 -1 -1 -0 -0 -0 -0 -1 -1 -1 nan nan nan nan nan nan nan -2 -2 -2 -2 -2 -2 -2 -2 -1 -1 -1 -0 -0 -0 -0 -0 -0 -0
nan nan nan nan nan nan -0 -0 -0 -0 -0 nan nan nan nan nan nan nan nan nan nan nan nan nan nan nan nan nan nan nan nan nan -0 -0 nan nan nan nan nan nan nan nan nan nan nan nan nan nan nan nan -0 -0 -0 -0 -0 -0 -0 -0 -1 -1 -1 -1 nan nan nan nan nan nan -2 -2 -2 -3 -2 -2 -2 -2 -1 -1 -0 -0 -0 -0 -0 -0 -0 -0
nan nan nan nan nan nan -0 -0 -0 -0 -0 -0 -0 -0 nan nan nan nan nan nan nan nan nan nan nan nan nan nan nan nan nan nan nan nan nan nan nan nan nan nan nan nan nan nan nan nan nan nan nan nan -0 -0 -0 -0 -0 -1 -1 -1 -1 -1 -1 -1 -1 nan nan nan nan nan -2 -2 -2 -2 -3 -3 -2 -2 -1 -1 -0 -0 -0 -0 -0 -0 -0 -0
nan nan nan nan nan nan nan nan nan nan nan nan -0 -0 -0 nan nan nan nan nan nan nan nan nan nan nan nan nan nan nan nan nan nan nan nan nan nan nan nan nan nan nan nan nan nan nan nan nan nan nan -1 -0 -0 -0 -0 -0 -0 -0 -1 -1 -1 -1 -1 -1 -1 nan nan nan -2 -2 -2 -2 -2 -2 -2 -1 -1 -1 -0 -0 -0 -0 -0 -0 -0 -0
nan nan -2 -1 -1 -0 nan nan nan nan nan nan nan nan nan nan nan nan nan nan nan nan nan nan nan nan nan nan nan nan nan nan nan nan nan nan nan nan nan nan nan nan nan nan nan nan nan nan nan nan nan -1 -0 -0 -0 -0 -0 -0 -1 -1 -1 -1 -1 -1 -1 -1 -1 -1 -1 -1 -1 -1 -2 -2 -2 -2 -1 -1 -0 -0 -0 -0 -0 -0 -0 -0
-1 -1 -1 -0 -0 -0 -0 -0 -0 -0 nan nan nan nan nan nan nan nan nan nan nan nan nan nan nan nan nan nan nan nan nan nan nan nan nan nan nan nan nan nan nan nan nan nan nan nan nan nan nan nan nan nan -0 -0 -0 -0 -0 -0 -0 -1 -1 -1 -1 -0 -0 -0 -1 -1 -1 -1 -1 -1 -1 -1 -1 -2 -1 -1 -1 -1 -1 -1 -2 -2 -2 -0
-0 -0 -0 -0 -0 -0 -0 -0 -0 -0 -0 -0 nan nan nan nan nan nan nan nan nan nan nan nan nan nan nan nan nan nan nan nan nan nan nan nan nan nan nan nan nan nan nan nan nan nan nan nan nan nan nan nan -0 -0 -0 -0 -0 -0 -0 -0 -0 -1 -1 -1 -1 -0 -0 -0 -0 -0 -0 -0 -0 -0 -0 -0 -0 -0 -0 -0 -0 -1 -2 -2 -2 -0
-0 -0 -0 -0 -0 -0 -0 -0 -0 -0 -0 -0 -0 -0 nan nan nan nan nan nan nan nan nan nan nan nan nan nan nan nan nan -1 nan nan nan nan nan nan nan -0 -0 nan nan nan nan -0 -0 -1 -1 nan nan nan nan nan -0 -0 -0 -0 -0 -0 -0 -0 -1 -1 -1 -1 -1 -0 -0 -0 -0 -0 -0 -0 -0 -0 -0 -0 -0 -0 -0 -1 -2 -3 -3 -3
-0 -0 -0 -0 -0 -0 -0 -0 -0 -0 -0 -0 -0 -0 nan nan nan nan nan nan nan nan nan nan nan nan nan nan nan nan nan -0 -0 -0 nan nan nan nan nan nan nan -0 nan nan nan nan nan nan nan nan nan nan nan nan nan -0 -0 -0 -0 -0 -0 -0 -0 -0 -0 -1 -1 -0 -0 -0 -0 -0 -0 -0 -0 -0 -0 -0 -0 -0 -0 -0 -2 -3 -3 -4
-0 -0 -0 -0 -0 -0 -0 -0 -0 -0 -0 -0 -0 -0 -0 nan nan nan nan nan nan nan nan nan nan nan nan -0 nan nan nan -0 -0 -0 nan nan nan nan nan nan nan nan -0 nan nan nan nan nan nan nan nan -0 nan nan nan nan nan nan -0 -0 -0 -1 -0 -0 -0 -0 -0 -0 -0 -0 -0 -0 -0 -0 -0 -0 -0 -0 -0 -0 -0 nan nan nan nan -4
nan nan nan nan nan -0 nan nan -0 -0 -0 -0 -0 -0 -0 nan nan nan nan nan nan nan nan nan nan -0 nan nan nan nan nan nan -0 -0 nan nan nan nan nan nan nan nan -0 nan nan nan nan nan nan nan nan nan nan nan nan nan nan nan nan nan nan -0 -0 -0 -0 -0 -0 -0 -0 -0 -0 -0 -0 -0 -0 -0 -0 -0 -0 -0 -0 nan nan nan nan nan
nan nan nan nan nan nan nan nan nan nan nan nan nan nan -0 -0 nan nan nan nan nan nan nan nan nan nan nan nan nan nan nan nan -0 -0 nan nan nan nan nan nan nan nan nan nan nan nan nan nan nan nan nan nan nan nan nan nan nan nan nan nan nan nan -0 -0 -0 -0 -0 -0 -0 -0 -0 -0 -0 -0 -0 -0 -0 -0 -0 -0 -0 -0 nan nan nan nan
nan nan nan nan nan nan nan nan nan nan nan nan nan nan nan nan -0 -0 nan nan nan nan nan nan nan nan nan nan nan nan -0 -1 -0 -0 nan nan nan nan nan -0 -0 nan nan nan nan nan nan nan nan nan nan nan nan nan nan nan nan nan nan nan nan nan nan -1 -1 -1 -0 -0 -0 -0 -0 -0 -0 -0 -0 -0 -0 -0 -0 -0 -0 -0 -0 nan nan nan
nan nan nan nan nan nan nan nan nan nan nan nan nan nan nan nan nan nan nan nan nan nan nan nan nan nan nan nan nan nan nan -1 -0 -0 -0 nan nan nan -0 -0 -0 nan nan nan nan nan nan nan nan nan nan nan nan nan nan nan nan nan nan nan nan nan nan nan nan nan nan nan nan nan nan nan -0 -0 -0 -0 -0 -0 -0 -0 -0 -0 -0 nan nan nan
nan nan nan nan nan nan nan nan nan nan nan nan nan nan nan nan nan nan nan nan nan nan nan nan nan nan nan nan nan nan -0 nan -0 -0 -0 -4 nan nan -0 -0 -0 -0 nan nan nan nan nan nan nan nan nan nan nan nan nan nan nan nan nan nan nan nan nan nan nan nan nan nan nan nan nan nan nan nan -0 -0 -0 -0 -0 -0 -0 -0 -0 -0 -0 -1
nan nan nan nan nan nan nan -0 nan nan nan nan nan nan nan nan nan nan nan nan nan nan -2 nan nan nan nan nan nan nan -0 -0 -0 -0 -0 -2 nan nan -0 nan nan -0 nan nan nan nan nan nan nan nan nan nan nan nan nan nan nan nan nan nan nan nan nan nan nan nan nan nan nan nan nan nan nan nan nan -0 -0 -0 -0 -0 -0 -0 -0 -0 -0 -0
nan nan nan nan nan nan -1 nan nan nan nan nan nan nan nan nan nan nan nan nan nan nan nan -1 -1 -1 -0 nan -1 -1 nan nan nan nan nan nan nan nan nan nan nan -0 nan nan nan nan nan nan nan nan nan nan nan nan nan nan nan nan nan nan nan nan nan nan nan nan nan -1 nan nan nan nan nan nan -1 -0 -0 -0 -0 -0 -0 -0 -0 -0 -0 -0
nan nan nan nan nan nan nan nan -0 -0 nan nan nan nan nan nan nan nan nan nan nan nan nan nan nan nan -0 -0 -1 -1 nan nan nan nan nan nan nan nan nan nan nan nan nan nan nan nan nan nan nan nan nan nan nan nan nan nan nan nan nan nan nan nan nan nan nan nan nan -2 -1 -1 -1 nan nan nan nan nan nan nan nan nan nan -0 -0 -1 -1 -0
nan nan nan nan nan nan nan nan -0 -0 nan nan nan nan nan nan nan nan nan nan nan nan nan nan nan nan nan nan -0 -0 -0 nan nan nan nan nan nan nan nan nan nan nan nan nan nan nan nan nan nan nan nan nan nan nan nan nan nan nan nan nan nan nan -2 -2 -2 nan nan nan -1 -1 -1 nan nan nan nan nan nan nan nan -2 -2 -0 nan nan nan -0
nan nan nan -0 -0 nan nan -0 nan nan nan -1 nan nan nan nan nan nan nan nan nan nan nan nan nan nan nan -1 -1 -1 -1 -1 nan nan nan nan nan nan nan nan nan nan nan nan nan nan nan nan nan nan nan nan nan nan nan nan nan nan nan nan nan nan -1 -2 -2 -3 nan nan -2 -2 -2 nan nan nan nan nan nan nan nan -2 -2 -1 -1 nan nan nan
nan nan nan nan nan -1 nan nan nan nan nan nan nan nan nan nan nan nan nan nan nan nan nan nan nan nan nan nan nan nan nan nan nan nan nan nan nan nan nan nan nan nan nan nan nan nan nan nan nan nan nan nan nan nan nan nan nan -0 nan nan nan nan nan -1 -1 -3 -4 nan -3 -3 -1 -2 -1 -1 nan nan nan nan -2 -2 -2 -1 -1 -2 -2 -1
-1 -1 nan nan nan nan nan nan nan nan nan nan nan nan nan nan nan nan nan nan nan nan nan nan nan nan nan nan nan nan nan nan nan nan nan nan nan nan nan nan nan nan nan nan nan nan nan nan nan nan nan nan nan nan nan nan nan nan nan nan nan nan nan -1 -1 -4 -3 nan nan nan -1 -1 -1 -1 -1 nan -3 -3 -2 -2 -2 -0 -1 -1 -1 -2
nan nan nan nan nan nan nan nan nan nan nan nan nan nan nan nan nan nan nan nan nan nan nan nan nan nan nan nan nan nan nan nan nan nan nan nan nan nan nan nan nan nan nan nan nan nan nan nan nan nan nan nan nan nan nan nan nan nan nan nan nan nan nan nan nan nan -4 nan nan nan nan -2 -2 -2 -2 -2 -3 -3 -3 -1 -1 -0 -0 -1 -1 -2
nan nan nan nan nan nan nan nan nan nan nan nan nan nan nan nan nan nan nan nan nan nan nan nan nan nan nan nan nan nan nan nan nan nan nan -1 nan nan nan nan nan nan nan nan nan nan nan nan nan nan nan nan nan nan nan nan nan nan nan nan nan nan nan nan nan nan nan nan nan nan nan nan -3 -3 -2 -3 -3 -3 -3 -3 -3 -2 -1 -2 -2 -2
nan nan nan nan nan nan nan nan nan nan nan nan nan nan nan nan nan nan nan nan nan nan nan nan nan nan nan nan nan nan nan nan nan nan nan -0 -0 -0 nan nan nan nan nan nan nan nan nan nan nan nan nan nan nan nan nan nan nan nan nan -1 -1 nan nan nan nan nan nan nan nan nan nan nan nan nan -2 -2 -2 -2 -2 -2 -2 -2 -2 -2 -2 -2
nan nan nan nan nan nan nan nan nan nan nan nan nan nan nan nan nan nan nan nan nan nan nan nan nan nan nan nan nan nan nan nan nan nan nan nan nan nan nan nan nan nan nan nan nan nan nan nan nan nan nan nan nan nan nan nan nan nan nan nan nan nan nan nan nan nan nan nan nan nan nan nan nan nan -2 -1 -1 -1 -2 -1 -1 -1 -2 -2 -2 -2
nan nan nan nan nan nan nan nan nan nan nan nan nan nan nan nan nan nan nan nan nan nan nan nan nan nan -1 nan nan nan nan nan nan nan nan nan nan nan nan nan nan -2 nan nan nan nan nan nan nan nan nan nan nan nan nan nan nan nan nan nan nan nan nan nan nan nan nan nan nan nan nan nan nan nan -1 -1 -2 -2 -2 -2 -2 -1 -2 -1 -1 -2
nan nan nan nan nan nan nan nan nan nan nan nan nan nan nan nan nan nan nan nan nan nan nan nan nan nan nan nan nan nan nan nan nan nan nan nan nan nan nan nan nan nan nan nan nan -1 nan nan nan nan nan nan nan nan nan nan nan nan nan nan nan nan nan nan nan nan nan nan nan nan nan nan nan nan -2 -3 -2 -2 -2 -2 -2 -2 -2 -2 -2 -1
nan nan nan nan nan nan nan nan nan nan nan nan nan nan nan nan -0 -0 nan nan nan nan nan nan nan nan nan nan -2 -2 -1 nan nan nan nan nan nan nan nan nan nan nan nan nan nan nan nan nan nan nan nan nan nan nan nan nan nan nan nan nan nan nan nan nan nan nan nan nan nan nan nan nan nan nan nan nan -1 -1 -2 -1 -1 -2 -2 -2 -2 -2
nan nan nan nan nan nan nan nan nan nan nan nan nan nan nan nan nan nan nan nan nan nan nan nan nan nan nan nan nan nan nan nan nan nan nan nan nan nan nan nan nan nan nan nan nan nan nan nan nan -1 -0 nan nan nan nan nan nan nan nan nan nan nan nan nan nan nan nan nan nan nan nan nan nan nan nan -3 -1 -1 -1 -1 -1 -1 -2 -3 -3 -2
nan nan nan nan nan nan nan nan nan nan nan nan nan nan nan nan nan nan nan nan nan nan nan nan nan nan -1 nan nan nan nan nan nan nan nan nan nan nan -0 nan nan nan nan nan nan nan nan nan nan nan -0 -0 -0 -0 nan nan nan nan nan nan nan nan nan nan nan nan nan nan nan nan nan nan nan nan nan nan nan nan -2 -1 -1 -1 -1 -2 -2 -2
Wind_Speed
2 3 3 4 4 4 4 6 6 6 5 6 6 6 6 7 7 7 9 9 8 8 8 8 9 10 12 17 21 25 26 26 26 27 28 29 29 29 29 28 26 25 24 22 19 16 13 10 8 7 7 7 7 6 5 4 4 4 4 5 6 7 7 8 8 7 7 5 3 1 3 4 5 5 5 5 5 5 7 10 13 16 18 21 24 28
2 2 3 4 4 4 4 6 6 6 5 6 6 6 6 6 6 6 7 8 8 8 7 8 9 10 11 13 19 24 25 25 26 27 28 29 30 31 31 31 31 30 29 27 25 21 17 12 8 6 6 6 6 6 5 4 3 3 4 4 5 6 6 7 7 7 7 6 4 2 2 3 4 5 5 5 7 9 12 15 18 21 23 26 30 33
2 2 3 3 3 3 3 5 6 5 5 5 5 6 6 6 6 6 6 6 7 7 7 7 8 9 10 11 17 23 25 25 26 26 28 30 31 32 34 34 34 34 33 31 29 26 22 17 12 8 5 4 3 3 3 3 3 3 3 3 3 4 4 5 5 5 5 4 2 1 3 3 4 5 7 8 11 14 18 21 24 27 29 32 33 35
2 2 3 2 2 2 3 4 5 5 5 4 5 5 5 5 4 5 5 6 6 6 7 7 8 8 8 9 14 20 24 25 25 27 28 30 32 34 36 37 37 36 35 34 31 29 26 23 20 17 14 12 10 8 7 6 5 5 4 3 3 3 4 5 5 5 5 5 6 7 7 7 8 9 12 14 18 22 25 27 29 31 33 34 35 35
2 2 2 2 2 2 2 3 3 4 4 4 4 4 4 3 4 4 5 6 6 6 6 7 8 8 7 8 12 17 23 24 25 27 29 31 33 35 37 37 38 37 36 35 33 31 28 27 26 25 23 22 20 18 17 15 13 12 10 9 9 9 10 11 12 12 13 14 15 15 15 15 16 18 21 23 25 28 30 31 32 33 34 35 35 35
2 2 2 2 2 2 2 2 3 3 3 4 4 4 3 3 3 4 5 6 6 6 6 6 7 7 8 8 12 17 20 23 24 26 28 31 33 35 36 37 38 37 37 35 34 32 30 29 28 28 28 27 27 26 25 24 22 20 19 18 17 18 19 20 21 22 23 24 24 24 23 24 25 26 28 29 30 31 32 32 33 34 35 35 35 35
2 2 2 2 2 1 1 2 3 3 3 3 3 3 3 3 3 4 5 5 5 5 6 6 6 7 8 9 12 14 17 19 21 24 26 29 31 33 35 36 37 37 37 36 35 34 32 30 29 29 29 29 29 30 29 29 28 27 25 24 24 26 27 29 29 30 30 30 30 30 30 30 30 30 31 31 31 31 32 32 33 34 35 35 35 35
2 2 2 2 2 2 2 2 3 3 3 3 3 3 4 3 3 4 5 5 5 6 6 6 7 7 8 9 10 11 12 14 16 18 21 23 26 29 31 33 34 35 36 36 36 35 33 32 31 30 30 31 31 32 32 31 31 30 29 28 28 30 31 33 33 33 33 33 33 32 32 32 31 31 31 30 30 31 31 32 33 34 34 34 34 34
2 2 3 3 3 2 2 2 3 3 3 3 3 3 4 4 4 4 4 5 6 6 6 7 7 8 8 8 9 9 10 12 13 14 16 17 19 22 26 27 29 32 34 35 35 35 34 33 32 32 32 32 32 33 33 33 33 32 31 30 31 31 33 34 34 34 34 33 33 33 32 32 31 31 30 30 29 29 30 31 32 33 34 34 33 33
2 2 2 2 2 2 2 2 2 3 3 2 2 2 3 4 4 4 5 5 6 6 6 7 7 8 8 8 8 9 10 12 15 18 19 20 21 22 23 23 24 27 31 32 34 35 35 34 33 33 32 32 33 33 33 34 34 34 33 32 32 32 33 33 33 33 33 33 32 32 32 31 31 31 30 29 29 29 29 29 30 31 32 32 31 31
2 2 2 2 2 2 2 2 2 2 3 3 2 2 2 3 4 4 5 6 6 6 6 7 7 7 8 8 8 9 9 10 12 15 18 21 22 23 23 23 23 25 27 29 31 33 34 34 33 33 32 32 32 32 32 33 34 34 34 34 33 33 34 33 33 32 32 32 31 31 31 31 31 31 30 30 29 29 29 29 29 30 30 30 29 29
2 2 2 2 2 2 2 2 2 2 3 3 3 3 4 4 4 3 4 4 5 5 6 6 6 7 7 8 8 8 8 9 10 11 12 15 17 18 18 18 19 20 22 23 26 28 31 31 32 31 30 30 30 30 31 32 33 34 34 34 34 33 33 33 33 32 32 32 31 31 32 31 31 31 31 31 30 30 30 29 29 29 28 28 27 27
2 2 2 2 2 2 2 3 3 3 3 3 4 4 4 4 4 3 3 3 3 3 4 5 6 7 7 7 7 7 7 8 9 9 10 11 12 13 12 12 13 14 14 16 17 20 25 27 28 28 28 28 28 29 30 31 32 33 33 33 33 32 32 32 32 32 32 32 32 32 32 32 32 31 31 31 31 30 30 29 29 28 28 27 26 25
2 2 2 3 3 3 3 3 3 3 3 3 3 3 3 3 3 3 3 3 3 2 2 4 5 6 7 7 8 7 7 6 7 8 10 10 11 10 10 10 11 11 11 12 13 15 19 19 20 21 26 26 27 27 28 30 31 32 32 32 31 31 30 30 30 31 31 32 32 32 32 31 31 31 31 31 30 30 29 29 28 27 27 26 25 24
2 3 3 3 3 2 2 3 3 3 3 3 3 3 3 3 3 3 3 3 3 3 2 3 5 6 6 6 7 7 7 6 6 8 10 10 10 9 9 9 9 10 10 11 12 13 16 15 15 15 19 24 26 26 27 29 31 32 32 31 30 30 29 29 29 29 30 30 30 30 31 30 30 30 30 30 29 29 28 28 27 26 26 25 24 23
2 3 3 3 2 2 2 2 2 2 3 3 3 3 3 3 4 3 3 3 3 2 2 3 4 5 5 5 6 7 7 6 6 7 9 9 9 9 8 8 9 10 10 11 11 11 12 13 14 15 17 23 27 29 29 30 31 31 31 31 30 29 28 28 28 28 28 29 29 29 29 29 29 29 29 29 29 28 28 27 26 26 25 24 24 23
3 3 3 2 2 2 2 2 2 2 2 2 3 3 3 3 3 3 3 3 2 2 2 3 3 4 3 4 5 7 7 6 5 6 8 8 8 8 7 7 8 9 10 10 10 10 11 11 12 13 16 23 27 29 29 30 30 30 30 30 29 29 28 28 28 27 27 27 28 28 28 28 28 28 28 28 28 27 27 26 26 25 25 24 24 23
3 3 2 2 2 2 2 2 2 3 2 2 2 3 3 3 3 3 3 3 3 3 3 3 3 3 2 2 4 6 7 5 4 4 7 7 7 7 7 7 8 9 10 10 10 10 10 10 12 15 18 25 28 29 29 30 30 30 30 29 29 28 28 27 27 27 27 27 27 27 27 27 27 28 27 27 27 27 26 26 25 25 24 24 23 23
3 3 2 2 2 2 2 2 3 3 2 2 2 2 3 3 3 3 3 3 3 3 3 4 3 3 2 2 3 5 6 5 3 3 6 6 6 6 6 6 8 9 10 10 10 9 9 10 13 18 24 27 28 29 29 29 29 29 29 28 28 28 27 27 26 26 26 26 26 26 26 26 27 27 27 26 26 26 25 25 24 24 24 23 23 23
4 3 3 2 1 2 2 3 3 2 2 2 2 2 2 2 3 3 3 3 3 3 3 4 4 3 2 2 3 5 6 5 3 3 6 6 5 6 6 6 7 9 10 9 9 8 9 9 11 16 23 25 27 28 28 29 29 28 28 28 27 27 27 26 26 25 25 25 25 25 25 26 26 26 26 26 25 25 24 24 24 23 23 23 22 22
4 4 3 2 1 1 2 2 2 2 3 2 2 2 2 2 2 3 3 3 3 3 3 4 4 3 2 2 3 4 5 4 3 2 4 5 5 5 5 6 7 8 9 8 8 8 8 8 9 12 19 24 26 27 28 28 28 28 27 27 27 26 26 26 25 25 24 24 24 24 24 25 25 25 25 25 24 24 24 24 23 23 23 23 22 22
4 4 3 2 2 2 2 2 2 3 3 2 2 1 1 2 2 3 2 3 3 3 4 4 3 3 2 3 3 3 4 4 3 1 2 5 6 6 5 5 6 7 9 8 7 7 8 8 9 12 20 26 27 27 27 27 27 27 27 26 26 26 26 25 25 25 24 24 23 23 24 24 24 24 24 24 24 24 24 23 23 23 23 23 23 22
5 5 3 3 2 2 2 2 2 2 3 2 2 1 1 1 1 1 1 2 2 3 4 4 3 3 3 3 3 4 5 4 3 2 3 5 5 5 5 4 5 7 8 7 6 7 7 8 9 11 17 26 28 28 27 27 27 26 26 26 26 25 25 25 25 24 24 24 23 23 23 23 23 23 23 23 23 23 23 23 23 23 23 23 23 22
6 5 4 3 2 2 2 2 2 2 2 2 1 0 1 0 0 0 0 0 1 1 2 2 3 3 4 4 4 5 6 6 5 3 3 5 4 4 4 4 5 7 7 6 6 6 7 8 8 9 11 21 26 27 27 27 26 26 26 26 25 25 25 24 24 24 24 23 23 23 23 22 22 22 22 22 23 23 23 23 23 22 22 22 22 22
6 6 5 4 4 5 5 4 4 4 3 2 1 1 1 1 0 0 0 0 1 1 1 3 4 4 4 4 5 5 6 6 5 4 3 4 3 3 3 4 5 6 6 5 5 6 6 7 8 8 8 14 20 25 26 26 26 26 26 25 25 25 24 24 24 23 23 23 22 22 22 22 22 21 21 22 22 22 22 22 21 21 21 21 21 21
9 9 9 10 11 12 12 11 11 10 8 5 3 2 1 1 1 1 2 2 2 2 2 4 5 4 3 4 4 4 4 5 5 5 3 3 3 2 3 4 4 4 6 5 6 6 7 7 8 8 8 10 15 20 24 24 25 25 25 25 25 24 24 24 24 23 23 22 22 22 21 21 21 21 21 21 21 21 21 20 20 19 18 18 19 20
16 16 16 16 16 16 15 15 15 15 14 12 9 6 3 2 3 3 3 3 2 2 2 4 5 4 3 3 3 3 4 4 5 5 3 2 2 2 2 3 3 3 5 5 6 7 8 8 8 8 8 8 10 13 20 22 23 23 24 25 24 24 24 24 23 23 23 22 22 21 21 21 20 20 20 20 20 20 19 19 17 16 15 14 14 16
17 17 17 16 16 16 16 16 16 16 16 16 14 12 7 4 4 4 3 2 2 2 2 4 4 3 3 2 2 2 3 4 5 4 3 2 2 2 1 2 2 2 2 3 5 7 9 8 8 7 7 8 8 10 15 18 19 20 22 23 23 24 24 23 23 23 23 23 22 22 21 21 20 20 19 19 19 19 18 17 15 14 12 10 8 8
15 15 16 16 15 15 14 14 15 16 17 17 16 13 9 6 4 3 2 2 2 2 3 3 3 3 2 1 1 1 3 4 5 4 3 2 2 1 1 1 2 2 1 1 3 4 7 7 7 7 7 8 8 8 10 13 14 15 16 19 21 22 23 23 23 23 23 23 23 22 22 21 21 20 19 19 18 18 17 16 14 11 9 7 7 6
10 11 12 12 12 12 11 10 11 13 15 16 15 13 9 6 5 3 2 2 2 3 3 3 3 2 1 1 1 2 3 3 4 5 4 2 1 1 1 1 1 2 1 1 2 3 4 5 6 6 6 7 7 7 7 8 9 9 10 13 15 18 20 21 22 22 23 23 23 23 23 22 21 21 20 19 19 18 17 15 12 9 6 6 6 6
7 7 7 8 8 8 8 7 8 9 11 12 12 10 8 6 5 4 4 4 3 3 3 3 2 2 1 1 1 1 1 2 4 5 4 2 1 1 1 1 1 1 1 1 2 2 2 3 4 5 6 6 6 7 7 7 7 7 7 8 9 12 17 18 19 19 20 21 22 22 23 22 22 22 21 20 19 18 17 15 12 8 5 5 5 6
6 6 6 6 6 6 6 6 6 6 7 8 8 8 7 7 6 5 5 4 4 3 3 3 3 3 2 2 2 2 1 2 4 5 4 2 1 1 1 1 1 1 1 1 2 2 2 1 2 3 5 5 5 6 7 7 7 6 6 6 7 9 13 14 14 15 15 17 19 20 21 22 22 22 22 21 21 20 18 16 13 9 6 5 5 6
5 5 5 5 5 5 5 5 5 5 5 5 5 6 6 6 6 6 5 4 4 3 3 3 3 4 3 4 3 2 1 1 3 5 4 2 1 1 1 1 1 1 2 2 2 3 3 2 1 1 3 4 4 5 6 7 7 6 6 6 6 7 9 10 10 11 11 12 13 15 17 18 20 20 21 21 21 20 20 18 16 12 7 6 5 5
6 6 6 6 5 5 5 5 5 5 5 5 5 5 5 5 5 6 5 5 5 4 4 4 4 4 3 4 3 3 2 2 4 5 4 2 1 1 1 2 2 1 1 2 3 3 3 2 1 1 2 3 4 5 5 6 6 6 6 6 6 6 7 7 7 7 8 8 8 9 11 12 14 16 17 18 19 20 20 19 18 15 12 8 6 5
6 6 6 6 5 5 5 5 5 5 5 5 5 5 5 5 5 5 5 5 5 5 5 5 4 4 3 3 3 3 2 3 4 5 3 1 1 1 1 2 2 1 2 2 3 3 3 2 2 2 2 2 3 4 5 5 5 5 5 6 6 6 6 6 6 6 6 7 7 7 7 7 8 10 12 15 17 18 20 20 19 18 17 13 10 7
6 6 6 5 5 5 5 5 5 5 6 5 5 5 5 5 5 4 4 4 5 5 6 6 5 5 5 4 4 3 2 3 4 5 4 1 1 2 2 1 1 1 2 2 3 3 3 2 2 3 3 3 2 3 4 4 4 5 5 6 6 6 6 6 6 5 6 6 7 7 7 7 7 8 9 13 15 17 18 19 19 18 18 17 16 13
6 6 5 5 5 5 5 5 5 5 5 5 4 4 4 4 4 4 4 4 4 5 6 6 7 7 8 6 5 4 3 3 4 4 3 1 1 2 2 1 1 1 2 3 3 3 3 3 3 3 3 3 3 2 3 4 4 4 5 6 6 6 6 6 6 6 6 7 7 7 7 7 7 7 8 12 13 14 15 16 17 17 17 18 18 18
6 6 5 4 4 4 5 4 4 4 4 4 4 4 4 4 4 4 4 4 4 5 5 5 6 8 11 10 8 7 5 5 5 5 4 2 2 2 3 2 2 2 2 2 3 3 3 3 3 3 3 3 3 2 2 3 3 4 4 5 5 6 6 7 6 6 6 7 7 8 8 7 7 7 7 8 8 9 10 10 12 13 13 14 16 18
6 6 5 5 4 4 4 4 4 4 4 4 4 4 4 4 4 4 4 4 5 5 5 5 6 7 9 10 10 10 9 8 8 8 7 5 4 3 4 4 3 3 2 2 3 3 4 4 4 3 3 2 2 2 2 2 3 3 3 3 4 6 7 7 7 6 6 6 7 8 7 7 7 7 7 6 6 7 7 8 9 9 9 8 10 13
6 5 5 5 4 4 4 4 4 4 4 4 4 4 4 4 4 4 4 4 4 4 5 5 6 6 7 8 9 10 10 9 9 9 7 6 5 4 4 4 4 4 4 4 4 5 5 5 4 3 3 2 2 1 2 3 3 3 3 3 4 5 6 6 6 6 6 5 6 6 6 6 6 7 7 6 7 7 7 6 7 8 8 7 6 7
6 6 5 5 5 4 5 4 4 3 3 3 3 3 3 3 3 3 3 4 4 4 4 4 5 6 7 8 9 9 10 9 10 9 8 8 7 6 5 4 4 4 5 6 6 6 6 6 5 4 4 3 3 3 4 3 4 4 4 4 3 3 4 6 6 5 5 5 6 6 6 7 7 7 7 7 7 7 7 7 7 8 8 7 6 6
6 6 5 5 4 4 3 3 4 3 3 3 3 3 3 3 2 3 3 3 3 3 3 3 3 5 7 7 8 8 9 9 9 10 10 9 9 7 6 5 4 4 5 7 7 7 6 6 5 4 3 3 3 4 4 4 4 4 5 3 2 2 3 5 5 5 5 5 5 5 7 6 6 6 7 7 7 7 8 8 9 9 8 7 6 6
6 5 5 4 4 4 4 4 4 4 3 3 3 3 3 2 2 2 3 3 3 3 3 2 3 4 6 6 6 7 7 8 9 9 10 10 9 9 7 6 5 4 4 6 7 6 6 6 5 4 2 2 3 4 5 4 4 4 5 4 3 3 2 3 4 4 4 4 5 5 5 5 5 5 6 6 6 7 7 8 9 10 9 6 6 6
5 5 4 4 4 4 4 4 3 3 3 4 4 4 3 3 3 3 2 2 2 2 2 2 2 4 7 7 6 6 5 7 8 9 10 11 11 10 8 8 7 6 5 5 5 5 5 6 5 4 2 2 3 5 5 4 4 4 5 5 5 4 3 2 2 3 4 4 4 4 4 3 4 5 6 6 6 6 6 6 6 7 7 6 6 5
5 5 4 4 4 4 4 4 4 4 4 4 4 4 3 3 3 3 3 2 2 2 2 2 1 3 6 5 5 5 4 5 6 7 8 11 12 12 10 8 7 7 7 6 5 4 5 5 5 4 3 4 5 6 6 5 4 4 5 5 5 5 4 3 3 4 4 4 4 4 4 3 3 4 5 6 6 6 6 6 6 6 6 6 6 6
5 5 5 4 4 4 5 4 4 4 4 4 4 4 3 3 3 3 3 3 3 3 3 2 2 4 5 4 4 4 4 4 5 5 6 7 8 8 8 8 8 7 7 7 6 5 5 5 4 3 3 5 6 7 6 5 5 4 4 4 4 4 4 4 4 4 4 4 4 4 4 3 3 4 5 6 6 6 6 6 6 7 6 6 6 6
5 5 5 5 4 4 4 4 4 4 4 4 4 4 4 3 3 3 3 3 3 3 3 3 4 5 6 4 4 4 4 4 5 5 5 5 6 6 6 7 7 8 7 7 7 7 6 5 4 3 3 5 6 6 5 5 5 4 4 4 3 4 4 4 4 4 4 4 4 4 4 3 4 5 5 5 5 5 5 6 6 6 6 6 6 6
6 6 6 5 5 5 4 4 4 4 4 4 4 4 4 4 4 4 3 3 3 3 4 4 5 6 6 5 4 4 5 5 4 4 4 4 4 5 5 5 5 6 6 7 8 8 7 6 6 5 4 4 5 5 4 4 4 4 3 3 3 4 4 4 4 4 4 4 4 4 4 3 4 4 4 4 5 5 5 6 6 6 6 6 6 6
5 6 6 5 5 5 5 4 4 4 5 5 5 4 4 5 5 5 3 3 3 3 3 4 5 5 6 5 5 5 5 5 4 3 3 3 3 3 3 3 3 4 4 5 5 6 6 7 8 8 7 6 5 5 4 4 3 3 3 3 3 3 3 4 4 4 4 4 5 5 4 3 3 3 4 5 5 5 5 5 6 6 6 6 6 6
5 5 5 5 5 5 5 5 5 5 5 5 5 5 4 4 4 4 3 3 3 3 3 4 5 5 6 5 4 4 4 4 3 3 2 2 2 2 2 2 2 3 3 3 4 4 4 5 7 9 11 10 8 6 4 3 3 3 3 3 3 3 3 3 3 4 4 4 5 5 5 4 3 3 3 4 5 5 5 5 5 5 5 5 6 6
5 5 5 5 5 5 5 5 5 5 5 5 6 5 5 4 4 3 3 3 3 3 3 4 4 5 6 5 5 4 4 3 3 3 3 2 2 2 2 2 2 2 2 3 3 3 3 3 4 5 9 11 11 9 4 3 3 2 3 3 3 2 2 3 3 4 4 4 4 4 5 5 4 4 3 3 4 5 5 5 5 5 5 5 5 6
Wind_Direction
339 327 324 336 340 346 355 359 359 356 351 350 352 353 353 355 357 359 2 3 1 359 358 354 352 351 352 358 3 7 11 15 21 26 29 30 31 31 30 28 26 24 22 19 16 10 2 348 330 313 299 290 288 290 296 307 325 347 4 10 9 7 5 3 360 357 355 347 331 271 205 185 177 173 172 167 157 144 133 127 127 128 129 128 125 121
334 327 328 339 345 351 357 358 359 358 353 349 348 350 352 354 357 359 1 2 2 1 360 356 354 354 354 359 5 10 13 16 21 26 30 31 32 32 31 29 28 26 25 23 21 18 13 3 349 330 309 299 295 296 301 308 320 337 353 359 359 359 360 358 356 352 347 336 323 282 203 176 168 160 145 132 123 119 118 117 117 117 116 114 112 111
332 333 336 340 347 355 359 357 356 355 351 346 344 345 347 353 358 1 2 0 360 1 2 360 358 357 357 360 8 12 14 17 21 26 30 32 33 33 32 30 29 27 26 26 25 24 23 22 22 20 14 4 350 336 328 336 341 348 357 357 358 2 10 11 10 4 351 344 353 114 134 132 131 125 111 109 109 110 111 111 111 110 108 106 105 105
332 337 342 341 344 351 358 358 355 351 348 343 340 341 345 353 0 4 4 1 0 1 2 2 2 1 359 1 8 12 15 18 22 26 30 32 33 33 33 31 30 29 28 27 27 28 29 32 38 43 48 50 51 51 49 46 43 41 40 42 52 63 70 67 64 61 58 70 84 95 101 102 103 102 101 103 105 105 106 106 106 106 104 102 101 101
332 339 343 342 338 338 345 358 356 350 344 343 342 343 347 350 360 6 8 7 5 4 3 4 5 5 3 4 8 12 15 18 22 26 29 31 33 33 33 32 31 29 29 28 29 30 32 36 42 48 52 55 57 58 58 58 59 61 64 72 80 87 92 90 87 85 84 85 87 89 93 96 98 98 99 100 100 101 101 101 101 100 100 99 99 99
333 339 343 346 337 326 329 357 0 355 347 347 346 346 346 345 359 12 14 12 9 7 5 6 7 8 8 8 10 13 15 18 22 25 28 31 32 33 33 32 31 30 29 29 30 30 32 36 41 46 51 55 57 59 60 60 61 63 67 73 80 86 90 90 89 88 87 87 88 89 91 92 93 94 95 95 96 96 96 96 96 96 96 96 96 96
338 348 356 356 340 322 323 357 7 6 358 353 350 348 343 344 2 19 22 18 15 11 8 8 10 12 13 11 11 13 15 18 21 24 27 29 31 32 32 32 31 31 30 30 30 30 31 35 39 44 49 53 56 58 59 60 60 62 65 70 77 83 87 88 88 87 86 86 86 87 87 88 89 90 90 91 92 92 92 93 93 93 93 93 92 92
358 6 13 10 360 345 338 358 10 12 6 0 356 352 349 349 2 19 26 26 23 20 13 11 13 15 15 12 12 13 17 19 22 24 26 27 29 30 31 31 31 30 30 30 30 30 30 33 37 42 47 51 54 56 58 58 59 61 63 68 74 79 83 84 85 84 84 84 84 84 84 85 86 86 87 88 89 90 90 90 90 90 90 90 90 90
25 26 24 21 14 5 356 358 4 8 7 4 1 359 357 352 355 8 25 28 28 25 21 17 16 15 14 12 13 16 21 25 27 27 27 26 27 29 30 30 30 30 30 30 30 30 30 32 35 39 43 47 51 54 56 57 58 60 62 66 70 75 78 80 81 81 82 82 82 82 83 84 84 85 86 87 87 87 88 88 88 88 87 87 88 89
39 40 34 27 20 17 15 3 355 354 359 358 0 6 9 359 356 3 22 26 26 26 27 25 21 16 11 11 12 17 23 28 30 31 30 28 29 30 30 29 28 28 29 29 29 30 30 31 33 36 40 44 47 50 53 55 57 58 60 62 66 69 73 75 77 78 80 80 81 82 82 83 83 84 84 84 84 84 84 84 84 84 85 85 86 87
42 42 42 30 21 19 25 12 354 344 350 351 352 360 18 13 5 5 19 23 23 24 29 30 27 22 14 10 10 14 22 27 28 28 27 27 28 29 29 27 27 26 27 28 28 29 29 30 32 34 37 40 44 47 51 53 55 56 58 59 61 64 67 70 73 75 77 78 79 79 80 80 81 81 81 81 80 80 80 80 80 81 82 83 85 86
52 45 44 36 24 17 18 12 2 354 354 360 2 5 9 9 3 2 14 21 21 23 28 32 32 30 24 15 9 10 20 27 28 25 24 24 25 25 26 25 24 24 25 26 27 27 28 29 30 32 35 39 42 46 49 52 54 55 56 57 59 61 64 67 69 72 74 75 76 76 77 77 78 78 77 77 77 76 76 76 77 78 79 81 83 85
61 54 51 43 34 25 18 14 12 9 9 13 14 11 2 355 351 350 356 14 17 18 25 38 40 36 31 23 15 11 16 26 29 30 30 26 23 22 23 24 22 21 21 24 25 25 26 28 29 31 34 37 41 45 48 51 53 55 56 57 58 60 62 65 68 70 72 73 74 74 74 75 75 75 75 75 74 74 74 74 75 76 77 79 81 82
63 57 52 45 37 29 21 18 18 18 16 16 14 8 351 343 342 346 352 5 2 357 17 52 53 46 35 28 19 12 11 22 30 34 36 30 24 19 20 24 24 22 21 24 25 24 23 26 28 30 32 36 40 44 47 50 53 54 55 56 57 59 61 64 67 69 71 73 73 74 74 74 74 74 74 74 74 74 74 74 74 75 76 78 79 81
67 63 57 48 39 31 22 19 20 22 20 15 9 1 350 349 350 356 7 5 351 342 1 56 63 58 47 35 23 13 5 17 30 38 39 33 24 17 18 25 27 25 24 26 24 22 22 26 27 29 31 35 39 43 47 50 52 54 55 55 56 58 59 62 65 68 70 72 73 74 74 74 74 74 74 74 74 74 74 74 74 74 75 76 77 79
71 68 65 57 46 34 23 19 21 24 21 15 10 7 4 2 359 0 12 4 349 341 356 41 58 60 51 41 30 20 6 14 29 41 44 36 24 14 15 26 30 29 26 26 24 21 21 26 29 30 32 36 40 43 46 49 52 53 54 55 56 57 58 60 63 66 68 70 72 73 74 75 75 75 75 75 75 74 74 73 73 73 73 74 75 76
76 72 68 62 52 39 24 23 25 26 20 16 13 12 12 8 3 2 9 5 1 0 5 29 51 58 44 25 20 17 9 8 22 42 50 42 26 12 11 27 35 35 30 28 23 19 18 24 27 30 32 36 40 43 46 49 51 53 54 55 56 57 58 59 61 64 66 69 71 73 74 75 76 76 76 76 75 75 74 74 73 73 73 73 74 74
78 73 67 60 51 40 29 26 24 21 16 14 11 10 13 13 11 12 15 17 25 31 31 35 43 50 51 15 359 357 3 356 7 36 54 47 31 14 10 28 39 41 37 30 23 16 15 21 27 32 35 39 41 44 46 49 50 52 54 55 55 57 58 59 61 63 65 68 71 73 74 76 76 77 77 77 76 76 75 75 74 74 74 74 74 75
84 74 63 56 49 41 37 33 26 18 11 4 2 7 16 15 17 22 26 28 36 44 51 53 50 45 50 31 349 343 354 341 352 37 61 51 35 18 11 27 39 43 41 33 24 17 14 19 28 34 37 40 42 44 46 48 50 51 53 54 55 56 57 58 60 62 65 68 70 73 74 76 77 77 78 78 77 77 77 77 76 76 76 76 76 76
87 73 56 49 44 44 43 35 26 16 5 349 350 6 25 22 27 33 37 41 43 47 56 63 58 48 42 26 358 348 350 340 352 41 66 59 41 22 14 27 39 44 44 34 24 17 16 17 25 32 37 40 43 45 47 48 50 51 52 53 54 55 56 57 59 61 63 66 69 72 74 76 77 77 78 78 78 78 78 78 78 78 78 77 77 77
88 75 54 41 40 50 52 36 24 15 7 354 358 14 30 34 40 43 41 46 49 52 56 61 57 49 44 36 13 359 353 352 360 33 65 61 45 26 13 25 39 45 45 35 25 19 19 20 23 29 34 39 43 45 48 49 50 51 52 53 53 54 55 56 57 59 61 65 68 71 74 75 77 77 78 79 79 80 80 80 80 80 79 79 78 77
90 83 65 52 53 61 67 55 36 25 21 16 16 18 22 38 48 51 45 50 57 62 64 68 69 68 67 58 37 14 3 10 9 21 59 59 44 23 4 17 37 47 46 35 24 20 22 25 27 30 33 37 41 44 47 49 50 51 52 53 53 54 54 55 56 57 60 63 67 70 74 75 76 77 78 79 80 80 81 81 81 81 81 80 79 78
89 89 83 71 69 74 78 72 58 43 37 39 36 21 350 28 58 65 54 58 68 78 84 91 94 88 73 64 48 30 19 18 15 29 71 66 47 19 354 5 36 49 46 34 24 21 26 31 30 29 31 35 38 41 45 47 49 51 52 53 53 54 54 55 55 57 59 62 65 69 72 74 76 77 77 78 79 80 81 81 81 81 81 81 80 79
84 85 79 74 75 80 84 78 71 64 59 61 59 26 322 288 231 203 191 132 89 83 92 95 83 66 50 47 42 34 24 18 14 22 65 71 60 28 353 2 37 52 48 34 25 25 31 33 30 27 27 31 34 38 41 44 47 50 51 53 54 54 54 55 56 57 58 61 64 67 70 72 74 75 76 77 78 79 80 80 81 81 81 81 81 81
81 79 74 67 66 68 71 70 67 65 64 67 58 23 338 315 281 208 141 60 30 35 59 70 64 54 36 37 35 31 20 19 18 24 55 75 66 40 7 6 32 52 55 38 28 28 34 32 28 24 25 28 31 34 37 41 44 47 50 51 53 54 55 55 56 57 58 61 63 66 68 70 72 73 75 76 77 78 79 79 80 80 80 81 81 81
78 75 70 64 62 62 63 63 61 58 55 54 48 38 25 26 37 41 40 30 23 28 65 74 69 59 39 39 35 27 11 16 21 29 45 80 75 45 10 1 21 47 61 46 34 30 35 33 28 24 24 24 27 30 33 36 40 43 47 49 51 53 55 56 57 58 59 60 62 64 67 68 70 71 73 74 75 76 77 76 76 76 77 78 79 80
77 74 70 65 60 58 57 57 56 54 51 48 44 40 42 49 52 49 39 23 7 12 75 84 81 72 51 49 42 28 11 16 22 27 35 76 80 53 358 351 4 32 59 54 45 40 41 36 29 24 23 19 19 23 28 31 35 39 43 45 48 50 53 55 56 58 59 60 62 63 65 67 69 70 71 72 73 73 73 72 71 70 70 72 75 77
73 71 68 63 59 55 53 53 53 52 50 47 44 41 40 48 55 53 36 358 348 12 70 88 92 89 74 65 47 23 19 26 25 23 30 67 78 59 344 346 355 13 47 58 56 51 47 40 32 25 21 18 17 18 22 25 28 33 36 41 44 46 49 52 54 56 58 59 61 62 64 66 67 69 70 70 70 70 69 67 66 65 64 64 66 69
69 68 66 62 58 55 51 50 50 51 50 49 46 43 40 46 52 53 21 348 5 42 67 73 79 84 89 78 19 360 24 30 25 20 27 58 73 59 341 1 7 12 28 59 60 55 50 40 32 24 19 17 17 17 17 18 21 25 29 35 39 42 45 48 51 53 56 57 59 60 61 63 65 66 68 68 68 67 66 64 63 62 60 61 63 66
66 64 62 59 56 53 50 48 47 48 49 49 49 47 45 45 47 43 18 16 35 57 69 66 66 69 89 59 19 12 18 17 16 17 21 45 59 38 355 14 17 12 15 62 69 58 48 35 28 22 17 17 18 19 16 16 16 18 20 29 34 38 41 43 46 49 52 53 55 57 58 60 62 63 64 65 65 65 64 63 61 59 56 59 62 65
71 68 64 60 56 53 51 48 47 46 46 46 47 47 45 43 40 35 25 27 35 49 65 69 68 69 78 71 64 48 9 349 5 15 21 39 52 28 360 19 17 6 2 74 96 87 65 30 18 15 15 18 20 19 18 17 17 16 16 23 29 34 36 38 42 45 47 49 51 52 54 56 58 59 61 62 62 62 61 61 60 59 55 57 60 62
81 77 74 68 63 58 55 52 49 47 45 44 43 43 44 43 41 37 32 27 26 32 52 67 69 66 59 66 74 77 18 329 354 9 26 47 56 22 11 39 31 359 347 48 94 105 102 75 15 2 10 19 20 19 17 18 18 17 17 23 27 30 31 34 38 41 42 44 45 47 50 52 54 55 57 58 59 59 59 58 58 57 55 56 58 58
89 85 81 77 71 66 61 58 55 53 51 48 45 43 42 42 42 41 38 31 27 27 38 58 68 70 67 69 73 74 47 336 348 2 24 58 81 30 19 44 39 10 348 21 53 76 92 106 94 347 7 19 22 20 16 16 16 16 18 24 26 27 27 29 34 38 38 39 40 42 44 47 49 51 53 55 56 56 56 56 56 56 56 56 56 56
94 91 88 84 80 75 69 65 61 59 56 53 50 46 44 43 43 43 42 40 36 34 36 45 55 65 71 75 73 66 37 351 347 354 17 65 104 87 50 43 39 30 23 33 45 57 71 79 70 21 10 14 19 21 19 14 12 13 18 25 28 26 22 23 28 33 36 36 36 36 37 41 44 47 50 51 53 54 54 54 54 54 55 55 55 55
97 93 90 88 86 82 77 71 67 64 61 57 53 49 46 45 44 43 43 45 46 46 46 47 49 53 61 71 71 59 24 348 343 348 6 61 124 119 82 43 36 46 71 64 66 69 72 56 47 42 36 18 15 17 16 9 6 9 18 27 30 28 23 21 25 29 34 36 36 35 33 35 38 41 46 48 50 51 52 52 52 53 54 54 54 54
96 92 88 88 87 85 81 77 73 69 66 61 56 52 49 48 46 45 43 44 50 56 60 59 58 57 58 66 69 64 33 348 343 349 6 48 122 124 98 52 42 65 93 89 89 91 94 73 52 44 50 44 27 9 1 356 0 10 23 28 30 29 26 23 24 28 34 38 38 36 33 34 35 38 42 45 47 48 49 49 49 50 51 52 52 52
95 91 87 87 87 87 85 81 78 75 74 69 64 59 55 53 50 47 44 41 46 54 63 66 66 65 64 67 69 67 51 13 359 3 19 61 114 118 105 85 52 58 104 105 106 107 105 94 71 51 50 50 43 16 344 343 357 16 28 29 30 30 27 24 24 28 36 41 42 40 36 35 36 37 39 42 44 45 46 45 45 45 48 50 50 50
94 92 89 86 86 87 88 86 84 82 83 81 77 72 67 62 58 54 51 46 46 52 61 64 66 66 64 65 64 60 52 34 22 19 25 46 86 105 103 97 64 46 81 106 117 118 111 106 94 77 61 53 45 27 341 341 2 18 24 28 34 35 31 26 25 28 34 41 43 43 40 37 35 36 36 37 38 41 43 41 39 39 41 45 47 48
97 96 93 90 88 88 91 91 92 92 94 94 93 89 82 73 66 60 56 53 52 54 60 66 68 67 63 59 56 52 47 39 33 28 27 29 39 63 87 89 78 63 66 84 94 98 98 101 103 104 102 83 47 9 346 0 13 17 7 21 35 40 35 29 27 28 32 38 43 44 41 37 35 36 34 33 35 38 41 39 36 34 33 35 41 44
101 99 96 94 93 93 94 96 99 102 104 105 102 97 89 80 70 61 56 55 53 53 56 64 69 70 65 60 54 49 44 39 35 32 30 28 30 42 64 79 85 86 80 76 75 77 82 87 91 97 107 109 93 46 22 23 22 17 8 28 40 40 32 31 29 28 29 34 40 44 43 39 38 37 35 34 35 37 39 39 37 34 32 32 33 36
106 104 103 103 101 99 97 100 103 106 107 104 97 88 80 77 72 66 59 54 48 43 40 53 64 68 64 59 54 49 44 41 38 35 34 31 32 38 54 67 78 85 85 78 73 74 81 88 91 93 96 101 96 84 67 50 38 33 33 42 44 36 29 32 32 30 30 33 37 42 47 46 43 40 37 36 36 37 38 40 40 38 35 33 33 34
111 111 113 113 111 109 109 111 110 106 100 91 83 75 68 66 67 68 68 60 47 32 17 35 60 69 66 59 52 48 44 41 39 38 36 34 35 39 47 51 60 74 86 84 80 75 76 84 88 91 95 100 94 85 73 60 49 43 44 41 24 7 19 28 29 30 34 35 36 41 46 48 46 42 39 39 37 37 37 40 42 42 40 36 34 35
115 115 116 115 115 117 118 111 104 97 88 81 76 71 63 60 62 65 69 66 52 32 14 27 56 72 73 64 55 48 43 41 40 40 39 38 39 41 45 45 48 59 81 89 88 84 79 79 80 81 82 98 94 88 83 71 58 50 46 39 37 40 47 21 15 20 33 38 38 39 42 48 51 50 47 45 43 40 39 42 43 43 41 40 38 38
118 116 113 111 108 104 98 92 88 84 82 82 81 77 70 69 70 70 67 59 45 25 5 360 37 68 74 70 62 54 48 44 42 42 42 43 43 45 47 46 46 48 59 80 92 96 90 80 76 72 66 75 80 79 77 71 63 55 47 44 50 58 66 36 13 16 29 36 37 36 35 46 56 60 56 51 47 42 39 39 39 38 37 36 37 38
118 116 112 108 103 98 93 90 88 86 84 84 83 81 75 70 68 66 63 58 41 22 4 350 32 69 73 69 66 63 58 51 46 43 43 42 44 46 49 50 51 52 55 63 74 86 94 90 87 81 70 70 70 70 68 63 59 55 49 46 51 57 61 50 37 31 33 33 31 27 20 34 55 63 61 54 49 43 38 37 36 35 34 33 34 35
120 117 115 110 105 101 100 97 95 91 88 86 83 80 75 67 63 59 55 56 49 38 23 30 59 75 78 75 71 67 65 59 53 49 46 42 40 41 45 50 55 60 64 64 64 67 75 87 94 96 86 76 70 64 58 55 53 49 40 38 43 52 54 48 41 36 33 33 27 17 5 25 51 64 64 58 52 46 40 36 34 32 31 32 33 34
124 121 119 115 110 105 102 99 97 95 91 88 85 81 76 73 68 63 53 54 58 61 58 56 66 75 78 75 72 70 72 69 64 59 55 51 49 47 48 51 56 62 70 72 72 70 70 74 82 90 87 82 76 68 56 51 50 47 38 30 35 45 52 46 40 36 35 35 28 15 4 24 47 61 65 64 59 53 45 40 35 32 29 30 31 32
128 125 122 118 114 109 105 103 101 99 97 94 90 85 80 80 79 76 64 57 63 71 76 73 75 77 78 74 72 72 76 76 74 70 65 62 59 57 55 56 58 62 66 70 72 74 74 73 72 71 70 73 76 74 64 54 50 48 42 30 32 42 51 46 40 37 37 36 30 24 24 36 48 57 64 65 62 56 50 44 39 33 29 28 28 30
125 124 122 120 117 114 113 112 109 107 105 102 97 91 84 82 82 81 74 66 67 72 76 80 83 84 82 77 73 72 74 76 75 71 65 60 57 56 54 51 52 54 58 58 58 60 65 67 65 61 57 59 64 68 67 57 52 49 47 39 36 38 43 42 40 37 36 33 30 29 33 39 45 53 64 67 66 61 56 50 44 37 30 28 28 29
120 121 121 120 119 119 119 118 115 112 109 106 103 99 93 87 82 78 74 72 72 73 75 79 85 87 87 83 76 72 70 70 67 61 50 37 32 32 34 24 24 30 40 36 31 29 36 53 57 54 51 50 50 52 54 47 42 41 46 42 37 33 35 40 40 38 38 36 32 29 32 33 33 37 54 65 67 66 60 55 48 42 34 30 29 29
122 121 120 120 120 120 121 119 116 114 112 110 107 105 103 100 95 89 81 80 80 80 79 78 82 86 88 86 80 74 68 66 63 57 43 29 28 33 35 23 23 31 41 35 26 21 25 38 47 49 46 42 42 42 48 39 32 33 41 36 30 24 29 36 39 40 42 40 36 34 35 34 31 29 35 53 62 63 59 55 50 44 37 33 31 30